Time,TemperatureF,DewpointF,PressureIn,WindDirection,WindDirectionDegrees,WindSpeedMPH,WindSpeedGustMPH,Humidity,HourlyPrecipIn,Conditions,Clouds,dailyrainin,SoftwareType,DateUTC
2013-01-11 00:00:00,33.0,30.0,29.73,NE,52,1.0,2.0,90,0.07,,,0.00,Meteo,2013-01-11 06:00:00,
2013-01-11 00:05:00,33.0,31.0,29.73,NE,49,1.0,2.0,91,0.06,,,0.00,Meteo,2013-01-11 06:05:00,
2013-01-11 00:10:00,33.0,31.0,29.73,ENE,75,1.0,1.0,91,0.04,,,0.00,Meteo,2013-01-11 06:10:00,
2013-01-11 00:15:00,33.0,31.0,29.73,ENE,75,1.0,2.0,91,0.03,,,0.00,Meteo,2013-01-11 06:15:00,
2013-01-11 00:20:00,33.0,31.0,29.73,East,80,2.0,3.0,91,0.01,,,0.00,Meteo,2013-01-11 06:20:00,
2013-01-11 00:25:00,33.0,31.0,29.73,East,88,1.0,2.0,91,0.01,,,0.00,Meteo,2013-01-11 06:25:00,
2013-01-11 00:30:00,33.0,31.0,29.73,East,82,1.0,2.0,91,0.00,,,0.00,Meteo,2013-01-11 06:30:00,
2013-01-11 00:36:00,33.0,31.0,29.73,East,82,0.0,1.0,91,0.00,,,0.00,Meteo,2013-01-11 06:36:00,
2013-01-11 00:41:00,33.0,31.0,29.73,North,0,0.0,0.0,91,0.00,,,0.00,Meteo,2013-01-11 06:41:00,
2013-01-11 00:46:00,33.0,31.0,29.72,North,0,0.0,0.0,91,0.00,,,0.00,Meteo,2013-01-11 06:46:00,
2013-01-11 00:51:00,33.0,31.0,29.72,North,0,0.0,0.0,91,0.01,,,0.01,Meteo,2013-01-11 06:51:00,
2013-01-11 00:56:00,33.0,31.0,29.72,East,82,1.0,2.0,91,0.01,,,0.01,Meteo,2013-01-11 06:56:00,
2013-01-11 01:01:00,33.0,31.0,29.72,North,0,0.0,0.0,91,0.01,,,0.01,Meteo,2013-01-11 07:01:00,
2013-01-11 01:06:00,33.0,31.0,29.72,North,0,0.0,0.0,91,0.01,,,0.01,Meteo,2013-01-11 07:06:00,
2013-01-11 01:11:00,33.0,31.0,29.72,North,0,0.0,0.0,91,0.01,,,0.01,Meteo,2013-01-11 07:11:00,
2013-01-11 01:16:00,33.0,31.0,29.71,North,0,0.0,0.0,92,0.01,,,0.01,Meteo,2013-01-11 07:16:00,
2013-01-11 01:21:00,33.0,31.0,29.71,North,0,0.0,0.0,92,0.01,,,0.01,Meteo,2013-01-11 07:21:00,
2013-01-11 01:26:00,33.0,31.0,29.71,North,0,0.0,0.0,92,0.01,,,0.01,Meteo,2013-01-11 07:26:00,
2013-01-11 01:31:00,33.0,31.0,29.70,North,0,0.0,0.0,92,0.01,,,0.01,Meteo,2013-01-11 07:31:00,
2013-01-11 01:36:00,33.0,31.0,29.70,North,0,0.0,0.0,92,0.01,,,0.01,Meteo,2013-01-11 07:36:00,
2013-01-11 01:41:00,33.0,31.0,29.70,North,0,0.0,0.0,92,0.01,,,0.01,Meteo,2013-01-11 07:41:00,
2013-01-11 01:46:00,33.0,31.0,29.69,North,0,0.0,0.0,92,0.01,,,0.01,Meteo,2013-01-11 07:46:00,
2013-01-11 01:51:00,33.0,31.0,29.69,North,0,0.0,0.0,92,0.00,,,0.01,Meteo,2013-01-11 07:51:00,
2013-01-11 01:56:00,33.0,31.0,29.68,North,0,0.0,0.0,92,0.00,,,0.01,Meteo,2013-01-11 07:56:00,
2013-01-11 02:01:00,33.0,31.0,29.68,North,0,0.0,0.0,92,0.00,,,0.01,Meteo,2013-01-11 08:01:00,
2013-01-11 02:07:00,33.0,31.0,29.68,North,0,0.0,0.0,92,0.00,,,0.01,Meteo,2013-01-11 08:07:00,
2013-01-11 02:12:00,33.0,31.0,29.67,North,0,0.0,0.0,92,0.00,,,0.01,Meteo,2013-01-11 08:12:00,
2013-01-11 02:17:00,33.0,31.0,29.67,North,0,0.0,0.0,92,0.00,,,0.01,Meteo,2013-01-11 08:17:00,
2013-01-11 02:22:00,34.0,32.0,29.67,North,0,0.0,0.0,92,0.00,,,0.01,Meteo,2013-01-11 08:22:00,
2013-01-11 02:27:00,34.0,32.0,29.66,North,0,0.0,0.0,92,0.00,,,0.01,Meteo,2013-01-11 08:27:00,
2013-01-11 02:32:00,34.0,32.0,29.66,North,0,0.0,0.0,92,0.00,,,0.01,Meteo,2013-01-11 08:32:00,
2013-01-11 02:37:00,34.0,32.0,29.66,North,0,0.0,0.0,93,0.00,,,0.01,Meteo,2013-01-11 08:37:00,
2013-01-11 02:42:00,34.0,32.0,29.65,North,0,0.0,0.0,93,0.00,,,0.01,Meteo,2013-01-11 08:42:00,
2013-01-11 02:47:00,34.0,32.0,29.65,North,0,0.0,0.0,93,0.00,,,0.01,Meteo,2013-01-11 08:47:00,
2013-01-11 02:52:00,34.0,32.0,29.65,North,0,0.0,0.0,93,0.00,,,0.01,Meteo,2013-01-11 08:52:00,
2013-01-11 02:58:00,34.0,32.0,29.65,North,0,0.0,0.0,92,0.00,,,0.01,Meteo,2013-01-11 08:58:00,
2013-01-11 03:03:00,34.0,32.0,29.64,North,0,0.0,0.0,93,0.00,,,0.01,Meteo,2013-01-11 09:03:00,
2013-01-11 03:08:00,34.0,32.0,29.64,North,0,0.0,0.0,93,0.00,,,0.01,Meteo,2013-01-11 09:08:00,
2013-01-11 03:13:00,33.0,31.0,29.63,North,0,0.0,0.0,92,0.00,,,0.01,Meteo,2013-01-11 09:13:00,
2013-01-11 03:18:00,33.0,31.0,29.63,North,0,0.0,0.0,92,0.00,,,0.01,Meteo,2013-01-11 09:18:00,
2013-01-11 03:23:00,33.0,31.0,29.62,North,0,0.0,0.0,93,0.00,,,0.01,Meteo,2013-01-11 09:23:00,
2013-01-11 03:28:00,33.0,31.0,29.62,North,0,0.0,0.0,92,0.00,,,0.01,Meteo,2013-01-11 09:28:00,
2013-01-11 03:33:00,33.0,31.0,29.62,North,0,0.0,0.0,92,0.00,,,0.01,Meteo,2013-01-11 09:33:00,
2013-01-11 03:38:00,33.0,31.0,29.62,North,0,0.0,0.0,92,0.00,,,0.01,Meteo,2013-01-11 09:38:00,
2013-01-11 03:43:00,33.0,31.0,29.62,North,0,0.0,0.0,92,0.00,,,0.01,Meteo,2013-01-11 09:43:00,
2013-01-11 03:48:00,33.0,31.0,29.62,North,0,0.0,0.0,93,0.00,,,0.01,Meteo,2013-01-11 09:48:00,
2013-01-11 03:53:00,33.0,31.0,29.61,North,0,0.0,0.0,93,0.00,,,0.01,Meteo,2013-01-11 09:53:00,
2013-01-11 03:58:00,33.0,31.0,29.61,North,0,0.0,0.0,92,0.00,,,0.01,Meteo,2013-01-11 09:58:00,
2013-01-11 04:03:00,33.0,31.0,29.62,North,0,0.0,0.0,93,0.00,,,0.01,Meteo,2013-01-11 10:03:00,
2013-01-11 04:08:00,33.0,31.0,29.61,North,0,0.0,0.0,93,0.00,,,0.01,Meteo,2013-01-11 10:08:00,
2013-01-11 04:13:00,32.0,30.0,29.60,North,0,0.0,0.0,93,0.00,,,0.01,Meteo,2013-01-11 10:13:00,
2013-01-11 04:18:00,32.0,30.0,29.60,North,0,0.0,0.0,93,0.00,,,0.01,Meteo,2013-01-11 10:18:00,
2013-01-11 04:23:00,32.0,30.0,29.60,North,0,0.0,0.0,93,0.00,,,0.01,Meteo,2013-01-11 10:23:00,
2013-01-11 04:28:00,32.0,30.0,29.59,North,0,0.0,0.0,93,0.00,,,0.01,Meteo,2013-01-11 10:28:00,
2013-01-11 04:34:00,32.0,30.0,29.59,North,0,0.0,0.0,93,0.00,,,0.01,Meteo,2013-01-11 10:34:00,
2013-01-11 04:39:00,33.0,31.0,29.59,North,0,0.0,0.0,93,0.00,,,0.01,Meteo,2013-01-11 10:39:00,
2013-01-11 04:44:00,33.0,31.0,29.59,North,0,0.0,0.0,93,0.00,,,0.01,Meteo,2013-01-11 10:44:00,
2013-01-11 04:50:00,33.0,31.0,29.58,North,0,0.0,0.0,93,0.00,,,0.01,Meteo,2013-01-11 10:50:00,
2013-01-11 04:55:00,33.0,31.0,29.59,North,0,0.0,0.0,93,0.00,,,0.01,Meteo,2013-01-11 10:55:00,
2013-01-11 05:00:00,33.0,31.0,29.58,North,0,0.0,0.0,93,0.00,,,0.01,Meteo,2013-01-11 11:00:00,
2013-01-11 05:05:00,33.0,31.0,29.58,North,0,0.0,0.0,93,0.00,,,0.01,Meteo,2013-01-11 11:05:00,
2013-01-11 05:10:00,33.0,31.0,29.58,North,0,0.0,0.0,93,0.00,,,0.01,Meteo,2013-01-11 11:10:00,
2013-01-11 05:15:00,33.0,31.0,29.57,North,0,0.0,0.0,93,0.00,,,0.01,Meteo,2013-01-11 11:15:00,
2013-01-11 05:21:00,33.0,31.0,29.57,North,0,0.0,0.0,93,0.00,,,0.01,Meteo,2013-01-11 11:21:00,
2013-01-11 05:26:00,33.0,31.0,29.57,North,0,0.0,0.0,93,0.00,,,0.01,Meteo,2013-01-11 11:26:00,
2013-01-11 05:31:00,33.0,31.0,29.57,North,0,0.0,0.0,93,0.00,,,0.01,Meteo,2013-01-11 11:31:00,
2013-01-11 05:36:00,33.0,31.0,29.56,North,0,0.0,0.0,93,0.00,,,0.01,Meteo,2013-01-11 11:36:00,
2013-01-11 05:41:00,33.0,31.0,29.56,North,0,0.0,0.0,93,0.00,,,0.01,Meteo,2013-01-11 11:41:00,
2013-01-11 05:46:00,33.0,31.0,29.55,North,0,0.0,0.0,93,0.00,,,0.01,Meteo,2013-01-11 11:46:00,
2013-01-11 05:51:00,33.0,31.0,29.55,North,0,0.0,0.0,93,0.00,,,0.01,Meteo,2013-01-11 11:51:00,
2013-01-11 05:56:00,33.0,31.0,29.55,North,0,0.0,0.0,93,0.00,,,0.01,Meteo,2013-01-11 11:56:00,
2013-01-11 06:01:00,34.0,32.0,29.55,North,0,0.0,0.0,93,0.00,,,0.01,Meteo,2013-01-11 12:01:00,
2013-01-11 06:07:00,34.0,32.0,29.55,North,0,0.0,0.0,94,0.00,,,0.01,Meteo,2013-01-11 12:07:00,
2013-01-11 06:12:00,34.0,32.0,29.56,East,82,0.0,1.0,93,0.00,,,0.01,Meteo,2013-01-11 12:12:00,
2013-01-11 06:17:00,34.0,32.0,29.56,North,0,0.0,0.0,93,0.00,,,0.01,Meteo,2013-01-11 12:17:00,
2013-01-11 06:22:00,33.0,31.0,29.57,North,0,0.0,1.0,93,0.00,,,0.01,Meteo,2013-01-11 12:22:00,
2013-01-11 06:27:00,33.0,31.0,29.56,North,0,0.0,0.0,93,0.00,,,0.01,Meteo,2013-01-11 12:27:00,
2013-01-11 06:32:00,33.0,31.0,29.56,North,0,0.0,0.0,93,0.00,,,0.01,Meteo,2013-01-11 12:32:00,
2013-01-11 06:37:00,33.0,31.0,29.56,North,0,0.0,0.0,93,0.00,,,0.01,Meteo,2013-01-11 12:37:00,
2013-01-11 06:42:00,33.0,31.0,29.56,North,0,0.0,0.0,93,0.00,,,0.01,Meteo,2013-01-11 12:42:00,
2013-01-11 06:47:00,33.0,31.0,29.56,North,0,0.0,0.0,93,0.00,,,0.01,Meteo,2013-01-11 12:47:00,
2013-01-11 06:52:00,33.0,31.0,29.56,North,0,0.0,0.0,93,0.00,,,0.01,Meteo,2013-01-11 12:52:00,
2013-01-11 06:57:00,33.0,31.0,29.56,North,0,0.0,0.0,93,0.00,,,0.01,Meteo,2013-01-11 12:57:00,
2013-01-11 07:02:00,33.0,31.0,29.56,North,0,0.0,0.0,93,0.00,,,0.01,Meteo,2013-01-11 13:02:00,
2013-01-11 07:07:00,33.0,31.0,29.56,North,0,0.0,0.0,93,0.00,,,0.01,Meteo,2013-01-11 13:07:00,
2013-01-11 07:12:00,33.0,31.0,29.56,North,0,0.0,0.0,93,0.00,,,0.01,Meteo,2013-01-11 13:12:00,
2013-01-11 07:17:00,33.0,31.0,29.56,North,0,0.0,0.0,93,0.00,,,0.01,Meteo,2013-01-11 13:17:00,
2013-01-11 07:22:00,33.0,31.0,29.56,North,0,0.0,0.0,94,0.00,,,0.01,Meteo,2013-01-11 13:22:00,
2013-01-11 07:27:00,33.0,31.0,29.56,North,0,0.0,0.0,94,0.00,,,0.01,Meteo,2013-01-11 13:27:00,
2013-01-11 07:32:00,33.0,31.0,29.56,North,0,0.0,0.0,93,0.00,,,0.01,Meteo,2013-01-11 13:32:00,
2013-01-11 07:37:00,33.0,31.0,29.56,North,0,0.0,0.0,94,0.00,,,0.01,Meteo,2013-01-11 13:37:00,
2013-01-11 07:42:00,33.0,31.0,29.55,North,0,0.0,0.0,94,0.00,,,0.01,Meteo,2013-01-11 13:42:00,
2013-01-11 07:47:00,33.0,31.0,29.55,North,0,0.0,0.0,93,0.00,,,0.01,Meteo,2013-01-11 13:47:00,
2013-01-11 07:52:00,33.0,31.0,29.55,North,0,1.0,2.0,94,0.00,,,0.01,Meteo,2013-01-11 13:52:00,
2013-01-11 07:57:00,33.0,31.0,29.55,North,0,0.0,0.0,93,0.00,,,0.01,Meteo,2013-01-11 13:57:00,
2013-01-11 08:02:00,33.0,31.0,29.55,North,0,0.0,0.0,94,0.00,,,0.01,Meteo,2013-01-11 14:02:00,
2013-01-11 08:07:00,33.0,31.0,29.55,North,0,0.0,0.0,94,0.00,,,0.01,Meteo,2013-01-11 14:07:00,
2013-01-11 08:12:00,33.0,31.0,29.55,North,0,0.0,0.0,93,0.00,,,0.01,Meteo,2013-01-11 14:12:00,
2013-01-11 08:17:00,33.0,31.0,29.55,North,0,0.0,0.0,94,0.00,,,0.01,Meteo,2013-01-11 14:17:00,
2013-01-11 08:22:00,33.0,31.0,29.55,North,0,0.0,0.0,94,0.00,,,0.01,Meteo,2013-01-11 14:22:00,
2013-01-11 08:27:00,33.0,31.0,29.55,North,0,0.0,0.0,94,0.00,,,0.01,Meteo,2013-01-11 14:27:00,
2013-01-11 08:32:00,33.0,31.0,29.55,North,0,0.0,0.0,93,0.00,,,0.01,Meteo,2013-01-11 14:32:00,
2013-01-11 08:37:00,34.0,32.0,29.56,North,0,0.0,0.0,94,0.00,,,0.01,Meteo,2013-01-11 14:37:00,
2013-01-11 08:42:00,34.0,32.0,29.55,North,0,0.0,0.0,94,0.00,,,0.01,Meteo,2013-01-11 14:42:00,
2013-01-11 08:47:00,34.0,32.0,29.55,North,0,0.0,0.0,94,0.00,,,0.01,Meteo,2013-01-11 14:47:00,
2013-01-11 08:52:00,34.0,32.0,29.55,North,0,0.0,0.0,94,0.00,,,0.01,Meteo,2013-01-11 14:52:00,
2013-01-11 08:57:00,34.0,32.0,29.55,North,0,0.0,0.0,94,0.00,,,0.01,Meteo,2013-01-11 14:57:00,
2013-01-11 09:02:00,34.0,32.0,29.54,North,0,0.0,0.0,94,0.00,,,0.01,Meteo,2013-01-11 15:02:00,
2013-01-11 09:07:00,34.0,32.0,29.54,North,0,0.0,0.0,94,0.00,,,0.01,Meteo,2013-01-11 15:07:00,
2013-01-11 09:12:00,34.0,32.0,29.54,North,0,0.0,0.0,94,0.00,,,0.01,Meteo,2013-01-11 15:12:00,
2013-01-11 09:17:00,34.0,32.0,29.54,North,0,0.0,0.0,94,0.00,,,0.01,Meteo,2013-01-11 15:17:00,
2013-01-11 09:22:00,35.0,33.0,29.54,North,0,0.0,0.0,94,0.00,,,0.01,Meteo,2013-01-11 15:22:00,
2013-01-11 09:27:00,35.0,33.0,29.55,North,0,0.0,0.0,94,0.00,,,0.01,Meteo,2013-01-11 15:27:00,
2013-01-11 09:32:00,35.0,33.0,29.55,North,0,0.0,0.0,94,0.00,,,0.01,Meteo,2013-01-11 15:32:00,
2013-01-11 09:37:00,35.0,33.0,29.55,North,0,0.0,0.0,94,0.00,,,0.01,Meteo,2013-01-11 15:37:00,
2013-01-11 09:42:00,35.0,33.0,29.55,North,0,0.0,0.0,94,0.00,,,0.01,Meteo,2013-01-11 15:42:00,
2013-01-11 09:47:00,35.0,33.0,29.55,North,0,0.0,0.0,94,0.00,,,0.01,Meteo,2013-01-11 15:47:00,
2013-01-11 09:52:00,35.0,33.0,29.55,North,0,0.0,0.0,94,0.00,,,0.01,Meteo,2013-01-11 15:52:00,
2013-01-11 09:57:00,35.0,33.0,29.55,North,0,0.0,0.0,94,0.00,,,0.01,Meteo,2013-01-11 15:57:00,
2013-01-11 10:02:00,35.0,33.0,29.55,North,0,0.0,0.0,94,0.00,,,0.01,Meteo,2013-01-11 16:02:00,
2013-01-11 10:07:00,35.0,33.0,29.54,North,0,0.0,0.0,94,0.00,,,0.01,Meteo,2013-01-11 16:07:00,
2013-01-11 10:12:00,35.0,33.0,29.55,North,0,0.0,0.0,94,0.00,,,0.01,Meteo,2013-01-11 16:12:00,
2013-01-11 10:17:00,35.0,33.0,29.55,North,0,0.0,0.0,94,0.00,,,0.01,Meteo,2013-01-11 16:17:00,
2013-01-11 10:22:00,35.0,33.0,29.55,North,0,0.0,0.0,94,0.00,,,0.01,Meteo,2013-01-11 16:22:00,
2013-01-11 10:27:00,35.0,33.0,29.54,North,0,0.0,0.0,94,0.00,,,0.01,Meteo,2013-01-11 16:27:00,
2013-01-11 10:32:00,36.0,34.0,29.53,North,0,1.0,2.0,94,0.00,,,0.01,Meteo,2013-01-11 16:32:00,
2013-01-11 10:37:00,36.0,34.0,29.54,North,0,0.0,0.0,94,0.00,,,0.01,Meteo,2013-01-11 16:37:00,
2013-01-11 10:42:00,36.0,34.0,29.55,North,0,0.0,0.0,94,0.00,,,0.01,Meteo,2013-01-11 16:42:00,
2013-01-11 10:47:00,36.0,34.0,29.54,North,0,0.0,0.0,94,0.00,,,0.01,Meteo,2013-01-11 16:47:00,
2013-01-11 10:52:00,36.0,34.0,29.53,North,0,0.0,0.0,94,0.00,,,0.01,Meteo,2013-01-11 16:52:00,
2013-01-11 10:57:00,36.0,34.0,29.53,North,0,0.0,0.0,94,0.00,,,0.01,Meteo,2013-01-11 16:57:00,
2013-01-11 11:02:00,36.0,34.0,29.52,North,0,0.0,0.0,94,0.00,,,0.01,Meteo,2013-01-11 17:02:00,
2013-01-11 11:07:00,37.0,35.0,29.53,North,0,0.0,1.0,94,0.00,,,0.01,Meteo,2013-01-11 17:07:00,
2013-01-11 11:12:00,37.0,35.0,29.53,North,0,0.0,0.0,94,0.00,,,0.01,Meteo,2013-01-11 17:12:00,
2013-01-11 11:17:00,37.0,35.0,29.53,North,0,0.0,1.0,94,0.00,,,0.01,Meteo,2013-01-11 17:17:00,
2013-01-11 11:22:00,37.0,35.0,29.53,North,0,0.0,0.0,94,0.00,,,0.01,Meteo,2013-01-11 17:22:00,
2013-01-11 11:27:00,36.0,34.0,29.53,North,0,0.0,0.0,94,0.00,,,0.01,Meteo,2013-01-11 17:27:00,
2013-01-11 11:32:00,36.0,34.0,29.53,North,0,1.0,2.0,94,0.00,,,0.01,Meteo,2013-01-11 17:32:00,
2013-01-11 11:37:00,36.0,34.0,29.52,North,0,0.0,0.0,93,0.00,,,0.01,Meteo,2013-01-11 17:37:00,
2013-01-11 11:42:00,36.0,34.0,29.52,North,0,0.0,0.0,94,0.00,,,0.01,Meteo,2013-01-11 17:42:00,
2013-01-11 11:47:00,36.0,34.0,29.52,North,0,0.0,0.0,93,0.00,,,0.01,Meteo,2013-01-11 17:47:00,
2013-01-11 11:52:00,36.0,34.0,29.52,North,0,0.0,0.0,93,0.00,,,0.01,Meteo,2013-01-11 17:52:00,
2013-01-11 11:57:00,36.0,34.0,29.51,North,0,0.0,0.0,93,0.00,,,0.01,Meteo,2013-01-11 17:57:00,
2013-01-11 12:02:00,36.0,34.0,29.52,North,0,0.0,0.0,94,0.00,,,0.01,Meteo,2013-01-11 18:02:00,
2013-01-11 12:07:00,36.0,34.0,29.51,North,0,0.0,0.0,93,0.00,,,0.01,Meteo,2013-01-11 18:07:00,
2013-01-11 12:12:00,36.0,34.0,29.51,North,0,0.0,0.0,94,0.00,,,0.01,Meteo,2013-01-11 18:12:00,
2013-01-11 12:17:00,36.0,34.0,29.51,North,0,0.0,0.0,93,0.00,,,0.01,Meteo,2013-01-11 18:17:00,
2013-01-11 12:22:00,36.0,34.0,29.51,North,0,0.0,0.0,94,0.00,,,0.01,Meteo,2013-01-11 18:22:00,
2013-01-11 12:27:00,36.0,34.0,29.51,North,0,0.0,0.0,94,0.00,,,0.01,Meteo,2013-01-11 18:27:00,
2013-01-11 12:32:00,36.0,34.0,29.50,North,0,0.0,0.0,94,0.00,,,0.01,Meteo,2013-01-11 18:32:00,
2013-01-11 12:37:00,37.0,35.0,29.50,North,0,1.0,2.0,94,0.00,,,0.01,Meteo,2013-01-11 18:37:00,
2013-01-11 12:42:00,37.0,35.0,29.50,North,0,0.0,0.0,94,0.00,,,0.01,Meteo,2013-01-11 18:42:00,
2013-01-11 12:47:00,37.0,35.0,29.50,North,0,0.0,0.0,94,0.00,,,0.01,Meteo,2013-01-11 18:47:00,
2013-01-11 12:52:00,38.0,36.0,29.50,North,0,0.0,0.0,94,0.00,,,0.01,Meteo,2013-01-11 18:52:00,
2013-01-11 12:57:00,38.0,36.0,29.50,North,0,0.0,0.0,94,0.00,,,0.01,Meteo,2013-01-11 18:57:00,
2013-01-11 13:02:00,38.0,36.0,29.50,North,7,0.0,2.0,94,0.00,,,0.01,Meteo,2013-01-11 19:02:00,
2013-01-11 13:07:00,39.0,37.0,29.49,ENE,76,0.0,1.0,94,0.00,,,0.01,Meteo,2013-01-11 19:07:00,
2013-01-11 13:12:00,39.0,37.0,29.49,ENE,76,0.0,1.0,94,0.00,,,0.01,Meteo,2013-01-11 19:12:00,
2013-01-11 13:17:00,39.0,37.0,29.49,North,0,0.0,0.0,94,0.00,,,0.01,Meteo,2013-01-11 19:17:00,
2013-01-11 13:22:00,39.0,37.0,29.50,North,0,0.0,0.0,94,0.00,,,0.01,Meteo,2013-01-11 19:22:00,
2013-01-11 13:27:00,39.0,37.0,29.49,North,0,0.0,0.0,93,0.00,,,0.01,Meteo,2013-01-11 19:27:00,
2013-01-11 13:32:00,40.0,38.0,29.50,ENE,76,0.0,1.0,93,0.00,,,0.01,Meteo,2013-01-11 19:32:00,
2013-01-11 13:37:00,40.0,38.0,29.49,North,0,0.0,0.0,93,0.00,,,0.01,Meteo,2013-01-11 19:37:00,
2013-01-11 13:42:00,40.0,38.0,29.49,North,0,0.0,0.0,93,0.00,,,0.01,Meteo,2013-01-11 19:42:00,
2013-01-11 13:47:00,40.0,38.0,29.49,East,80,0.0,1.0,92,0.00,,,0.01,Meteo,2013-01-11 19:47:00,
2013-01-11 13:53:00,40.0,38.0,29.49,SSE,155,0.0,2.0,92,0.00,,,0.01,Meteo,2013-01-11 19:53:00,
2013-01-11 13:58:00,40.0,38.0,29.49,North,0,0.0,0.0,92,0.00,,,0.01,Meteo,2013-01-11 19:58:00,
2013-01-11 14:03:00,40.0,38.0,29.49,North,0,0.0,0.0,92,0.00,,,0.01,Meteo,2013-01-11 20:03:00,
2013-01-11 14:08:00,40.0,38.0,29.47,ENE,78,1.0,3.0,92,0.00,,,0.01,Meteo,2013-01-11 20:08:00,
2013-01-11 14:13:00,40.0,38.0,29.49,North,0,0.0,0.0,92,0.00,,,0.01,Meteo,2013-01-11 20:13:00,
2013-01-11 14:18:00,40.0,38.0,29.49,North,0,0.0,0.0,91,0.00,,,0.01,Meteo,2013-01-11 20:18:00,
2013-01-11 14:23:00,39.0,37.0,29.49,SSE,162,0.0,2.0,91,0.00,,,0.01,Meteo,2013-01-11 20:23:00,
2013-01-11 14:28:00,39.0,37.0,29.49,SSE,162,1.0,2.0,92,0.00,,,0.01,Meteo,2013-01-11 20:28:00,
2013-01-11 14:33:00,39.0,37.0,29.48,SSE,158,1.0,2.0,92,0.00,,,0.01,Meteo,2013-01-11 20:33:00,
2013-01-11 14:38:00,39.0,37.0,29.48,SSE,154,0.0,1.0,91,0.00,,,0.01,Meteo,2013-01-11 20:38:00,
2013-01-11 14:43:00,39.0,37.0,29.48,North,0,0.0,0.0,91,0.00,,,0.01,Meteo,2013-01-11 20:43:00,
2013-01-11 14:48:00,39.0,36.0,29.48,WSW,237,1.0,2.0,90,0.00,,,0.01,Meteo,2013-01-11 20:48:00,
2013-01-11 14:53:00,38.0,35.0,29.48,WSW,247,0.0,1.0,88,0.00,,,0.01,Meteo,2013-01-11 20:53:00,
2013-01-11 14:58:00,37.0,34.0,29.48,North,0,0.0,0.0,88,0.00,,,0.01,Meteo,2013-01-11 20:58:00,
2013-01-11 15:03:00,36.0,33.0,29.47,North,0,0.0,0.0,88,0.00,,,0.01,Meteo,2013-01-11 21:03:00,
2013-01-11 15:08:00,35.0,32.0,29.48,North,0,0.0,0.0,89,0.00,,,0.01,Meteo,2013-01-11 21:08:00,
2013-01-11 15:13:00,35.0,32.0,29.48,North,0,0.0,0.0,90,0.00,,,0.01,Meteo,2013-01-11 21:13:00,
2013-01-11 15:18:00,35.0,33.0,29.48,North,0,0.0,0.0,91,0.00,,,0.01,Meteo,2013-01-11 21:18:00,
2013-01-11 15:23:00,35.0,33.0,29.48,North,0,0.0,0.0,91,0.00,,,0.01,Meteo,2013-01-11 21:23:00,
2013-01-11 15:28:00,35.0,33.0,29.48,North,0,0.0,0.0,91,0.00,,,0.01,Meteo,2013-01-11 21:28:00,
2013-01-11 15:33:00,35.0,33.0,29.48,North,0,0.0,0.0,92,0.00,,,0.01,Meteo,2013-01-11 21:33:00,
2013-01-11 15:38:00,35.0,33.0,29.48,North,0,0.0,0.0,92,0.00,,,0.01,Meteo,2013-01-11 21:38:00,
2013-01-11 15:43:00,35.0,33.0,29.48,North,0,0.0,0.0,92,0.00,,,0.01,Meteo,2013-01-11 21:43:00,
2013-01-11 15:48:00,35.0,33.0,29.48,North,0,0.0,0.0,92,0.00,,,0.01,Meteo,2013-01-11 21:48:00,
2013-01-11 15:53:00,35.0,33.0,29.48,North,0,0.0,0.0,92,0.00,,,0.01,Meteo,2013-01-11 21:53:00,
2013-01-11 15:58:00,35.0,33.0,29.48,North,0,0.0,0.0,92,0.00,,,0.01,Meteo,2013-01-11 21:58:00,
2013-01-11 16:03:00,35.0,33.0,29.48,North,0,0.0,0.0,92,0.00,,,0.01,Meteo,2013-01-11 22:03:00,
2013-01-11 16:08:00,35.0,33.0,29.48,North,0,0.0,0.0,92,0.00,,,0.01,Meteo,2013-01-11 22:08:00,
2013-01-11 16:13:00,35.0,33.0,29.48,North,0,0.0,0.0,92,0.00,,,0.01,Meteo,2013-01-11 22:13:00,
2013-01-11 16:18:00,35.0,33.0,29.48,North,0,0.0,0.0,93,0.00,,,0.01,Meteo,2013-01-11 22:18:00,
2013-01-11 16:23:00,35.0,33.0,29.48,North,0,0.0,0.0,93,0.00,,,0.01,Meteo,2013-01-11 22:23:00,
2013-01-11 16:28:00,35.0,33.0,29.47,North,0,0.0,0.0,93,0.00,,,0.01,Meteo,2013-01-11 22:28:00,
2013-01-11 16:33:00,35.0,33.0,29.47,North,0,0.0,0.0,93,0.00,,,0.01,Meteo,2013-01-11 22:33:00,
2013-01-11 16:38:00,35.0,33.0,29.47,North,0,0.0,0.0,93,0.00,,,0.01,Meteo,2013-01-11 22:38:00,
2013-01-11 16:43:00,35.0,33.0,29.47,North,0,0.0,0.0,93,0.00,,,0.01,Meteo,2013-01-11 22:43:00,
2013-01-11 16:48:00,35.0,33.0,29.47,North,0,0.0,0.0,93,0.00,,,0.01,Meteo,2013-01-11 22:48:00,
2013-01-11 16:53:00,35.0,33.0,29.47,North,0,0.0,0.0,93,0.00,,,0.01,Meteo,2013-01-11 22:53:00,
2013-01-11 16:58:00,35.0,33.0,29.47,North,0,0.0,0.0,93,0.00,,,0.01,Meteo,2013-01-11 22:58:00,
2013-01-11 17:03:00,35.0,33.0,29.46,North,0,0.0,0.0,93,0.00,,,0.01,Meteo,2013-01-11 23:03:00,
2013-01-11 17:08:00,35.0,33.0,29.47,North,0,0.0,0.0,93,0.00,,,0.01,Meteo,2013-01-11 23:08:00,
2013-01-11 17:13:00,35.0,33.0,29.46,WSW,249,1.0,2.0,93,0.00,,,0.01,Meteo,2013-01-11 23:13:00,
2013-01-11 17:18:00,35.0,33.0,29.45,North,0,0.0,0.0,93,0.00,,,0.01,Meteo,2013-01-11 23:18:00,
2013-01-11 17:23:00,35.0,33.0,29.45,North,0,0.0,0.0,93,0.00,,,0.01,Meteo,2013-01-11 23:23:00,
2013-01-11 17:28:00,35.0,33.0,29.45,North,0,0.0,0.0,93,0.00,,,0.01,Meteo,2013-01-11 23:28:00,
2013-01-11 17:33:00,35.0,33.0,29.44,North,0,0.0,0.0,93,0.00,,,0.01,Meteo,2013-01-11 23:33:00,
2013-01-11 17:38:00,35.0,33.0,29.45,North,0,0.0,0.0,93,0.00,,,0.01,Meteo,2013-01-11 23:38:00,
2013-01-11 17:43:00,35.0,33.0,29.44,North,0,0.0,0.0,93,0.00,,,0.01,Meteo,2013-01-11 23:43:00,
2013-01-11 17:48:00,35.0,33.0,29.44,North,0,0.0,0.0,93,0.00,,,0.01,Meteo,2013-01-11 23:48:00,
2013-01-11 17:53:00,35.0,33.0,29.44,North,0,0.0,0.0,93,0.00,,,0.01,Meteo,2013-01-11 23:53:00,
2013-01-11 17:58:00,35.0,33.0,29.45,North,0,0.0,0.0,93,0.00,,,0.01,Meteo,2013-01-11 23:58:00,
2013-01-11 18:03:00,35.0,33.0,29.45,North,0,0.0,0.0,93,0.00,,,0.00,Meteo,2013-01-12 00:03:00,
2013-01-11 18:08:00,35.0,33.0,29.45,North,0,0.0,0.0,93,0.00,,,0.00,Meteo,2013-01-12 00:08:00,
2013-01-11 18:13:00,35.0,33.0,29.44,North,0,0.0,0.0,93,0.00,,,0.00,Meteo,2013-01-12 00:13:00,
2013-01-11 18:18:00,35.0,33.0,29.44,North,0,0.0,0.0,93,0.00,,,0.00,Meteo,2013-01-12 00:18:00,
2013-01-11 18:23:00,35.0,33.0,29.44,North,0,0.0,0.0,93,0.00,,,0.00,Meteo,2013-01-12 00:23:00,
2013-01-11 18:28:00,35.0,33.0,29.44,North,0,0.0,0.0,93,0.00,,,0.00,Meteo,2013-01-12 00:28:00,
2013-01-11 18:33:00,35.0,33.0,29.43,North,0,0.0,0.0,93,0.00,,,0.00,Meteo,2013-01-12 00:33:00,
2013-01-11 18:38:00,35.0,33.0,29.43,North,0,0.0,0.0,93,0.00,,,0.00,Meteo,2013-01-12 00:38:00,
2013-01-11 18:43:00,35.0,33.0,29.43,North,0,0.0,0.0,93,0.00,,,0.00,Meteo,2013-01-12 00:43:00,
2013-01-11 18:48:00,35.0,33.0,29.43,North,0,0.0,0.0,94,0.00,,,0.00,Meteo,2013-01-12 00:48:00,
2013-01-11 18:53:00,35.0,33.0,29.43,North,0,0.0,0.0,93,0.00,,,0.00,Meteo,2013-01-12 00:53:00,
2013-01-11 18:58:00,35.0,33.0,29.43,North,0,0.0,0.0,94,0.00,,,0.00,Meteo,2013-01-12 00:58:00,
2013-01-11 19:03:00,35.0,33.0,29.43,North,0,0.0,0.0,93,0.00,,,0.00,Meteo,2013-01-12 01:03:00,
2013-01-11 19:08:00,35.0,33.0,29.43,North,0,0.0,0.0,93,0.00,,,0.00,Meteo,2013-01-12 01:08:00,
2013-01-11 19:14:00,35.0,33.0,29.42,North,0,0.0,0.0,93,0.00,,,0.00,Meteo,2013-01-12 01:14:00,
2013-01-11 19:19:00,35.0,33.0,29.42,North,0,0.0,0.0,94,0.00,,,0.00,Meteo,2013-01-12 01:19:00,
2013-01-11 19:24:00,35.0,33.0,29.42,North,0,0.0,0.0,93,0.00,,,0.00,Meteo,2013-01-12 01:24:00,
2013-01-11 19:29:00,35.0,33.0,29.41,North,0,0.0,0.0,93,0.00,,,0.00,Meteo,2013-01-12 01:29:00,
2013-01-11 19:34:00,35.0,33.0,29.42,North,0,0.0,0.0,94,0.00,,,0.00,Meteo,2013-01-12 01:34:00,
2013-01-11 19:39:00,35.0,33.0,29.42,North,0,0.0,0.0,94,0.00,,,0.00,Meteo,2013-01-12 01:39:00,
2013-01-11 19:44:00,35.0,33.0,29.42,North,0,0.0,0.0,94,0.00,,,0.00,Meteo,2013-01-12 01:44:00,
2013-01-11 19:49:00,35.0,33.0,29.42,North,0,0.0,0.0,94,0.00,,,0.00,Meteo,2013-01-12 01:49:00,
2013-01-11 19:54:00,35.0,33.0,29.42,North,0,0.0,0.0,94,0.00,,,0.00,Meteo,2013-01-12 01:54:00,
2013-01-11 19:59:00,35.0,33.0,29.41,North,0,0.0,0.0,93,0.00,,,0.00,Meteo,2013-01-12 01:59:00,
2013-01-11 20:04:00,35.0,33.0,29.40,North,0,0.0,0.0,93,0.00,,,0.00,Meteo,2013-01-12 02:04:00,
2013-01-11 20:09:00,35.0,33.0,29.40,SE,140,0.0,1.0,94,0.00,,,0.00,Meteo,2013-01-12 02:09:00,
2013-01-11 20:14:00,35.0,33.0,29.39,SE,139,0.0,1.0,94,0.00,,,0.00,Meteo,2013-01-12 02:14:00,
2013-01-11 20:19:00,36.0,34.0,29.39,SE,126,1.0,2.0,94,0.00,,,0.00,Meteo,2013-01-12 02:19:00,
2013-01-11 20:24:00,36.0,34.0,29.39,North,0,0.0,0.0,94,0.00,,,0.00,Meteo,2013-01-12 02:24:00,
2013-01-11 20:29:00,37.0,35.0,29.38,SSE,165,0.0,1.0,94,0.00,,,0.00,Meteo,2013-01-12 02:29:00,
2013-01-11 20:34:00,37.0,36.0,29.38,SSE,150,1.0,2.0,95,0.00,,,0.00,Meteo,2013-01-12 02:34:00,
2013-01-11 20:39:00,37.0,35.0,29.38,SSE,151,1.0,2.0,94,0.00,,,0.00,Meteo,2013-01-12 02:39:00,
2013-01-11 20:44:00,38.0,37.0,29.38,SE,134,1.0,2.0,95,0.00,,,0.00,Meteo,2013-01-12 02:44:00,
2013-01-11 20:49:00,38.0,36.0,29.38,SE,136,1.0,3.0,94,0.00,,,0.00,Meteo,2013-01-12 02:49:00,
2013-01-11 20:54:00,38.0,37.0,29.37,SE,139,1.0,2.0,95,0.00,,,0.00,Meteo,2013-01-12 02:54:00,
2013-01-11 20:59:00,38.0,37.0,29.38,North,0,0.0,0.0,95,0.00,,,0.00,Meteo,2013-01-12 02:59:00,
2013-01-11 21:04:00,38.0,36.0,29.39,North,0,0.0,0.0,94,0.00,,,0.00,Meteo,2013-01-12 03:04:00,
2013-01-11 21:09:00,38.0,36.0,29.38,North,0,0.0,0.0,94,0.00,,,0.00,Meteo,2013-01-12 03:09:00,
2013-01-11 21:14:00,38.0,36.0,29.38,North,0,0.0,0.0,94,0.00,,,0.00,Meteo,2013-01-12 03:14:00,
2013-01-11 21:19:00,37.0,35.0,29.38,West,267,1.0,2.0,93,0.00,,,0.00,Meteo,2013-01-12 03:19:00,
2013-01-11 21:24:00,36.0,34.0,29.38,North,0,0.0,0.0,93,0.00,,,0.00,Meteo,2013-01-12 03:24:00,
2013-01-11 21:29:00,36.0,34.0,29.38,North,0,0.0,0.0,93,0.00,,,0.00,Meteo,2013-01-12 03:29:00,
2013-01-11 21:34:00,35.0,33.0,29.38,North,0,0.0,0.0,93,0.00,,,0.00,Meteo,2013-01-12 03:34:00,
2013-01-11 21:39:00,35.0,33.0,29.37,North,0,0.0,0.0,94,0.00,,,0.00,Meteo,2013-01-12 03:39:00,
2013-01-11 21:44:00,35.0,33.0,29.37,North,0,0.0,0.0,94,0.00,,,0.00,Meteo,2013-01-12 03:44:00,
2013-01-11 21:49:00,35.0,33.0,29.37,SSE,165,2.0,3.0,94,0.00,,,0.00,Meteo,2013-01-12 03:49:00,
2013-01-11 21:54:00,35.0,33.0,29.37,North,0,0.0,0.0,94,0.00,,,0.00,Meteo,2013-01-12 03:54:00,
2013-01-11 21:59:00,36.0,34.0,29.37,SSE,154,0.0,1.0,94,0.00,,,0.00,Meteo,2013-01-12 03:59:00,
2013-01-11 22:04:00,36.0,34.0,29.37,SSE,157,1.0,2.0,94,0.00,,,0.00,Meteo,2013-01-12 04:04:00,
2013-01-11 22:09:00,37.0,36.0,29.37,SSE,157,0.0,1.0,95,0.00,,,0.00,Meteo,2013-01-12 04:09:00,
2013-01-11 22:14:00,37.0,36.0,29.37,SSE,157,0.0,2.0,95,0.00,,,0.00,Meteo,2013-01-12 04:14:00,
2013-01-11 22:19:00,38.0,37.0,29.37,SSE,157,1.0,2.0,95,0.00,,,0.00,Meteo,2013-01-12 04:19:00,
2013-01-11 22:24:00,38.0,37.0,29.36,SSE,165,2.0,3.0,95,0.00,,,0.00,Meteo,2013-01-12 04:24:00,
2013-01-11 22:29:00,38.0,37.0,29.36,SSE,165,1.0,2.0,95,0.00,,,0.00,Meteo,2013-01-12 04:29:00,
2013-01-11 22:34:00,39.0,38.0,29.36,South,171,2.0,3.0,95,0.00,,,0.00,Meteo,2013-01-12 04:34:00,
2013-01-11 22:39:00,39.0,38.0,29.36,SSE,165,0.0,1.0,95,0.00,,,0.00,Meteo,2013-01-12 04:39:00,
2013-01-11 22:44:00,39.0,38.0,29.35,SSE,158,1.0,3.0,95,0.00,,,0.00,Meteo,2013-01-12 04:44:00,
2013-01-11 22:49:00,39.0,38.0,29.35,SSE,156,2.0,3.0,95,0.00,,,0.00,Meteo,2013-01-12 04:49:00,
2013-01-11 22:54:00,39.0,38.0,29.35,SSE,168,1.0,2.0,95,0.00,,,0.00,Meteo,2013-01-12 04:54:00,
2013-01-11 22:59:00,39.0,38.0,29.34,SSE,166,1.0,3.0,95,0.00,,,0.00,Meteo,2013-01-12 04:59:00,
2013-01-11 23:00:00,39.0,37.0,29.34,SSE,167,2.0,3.0,94,0.00,,,0.00,Meteo,2013-01-12 05:00:00,
2013-01-11 23:01:00,39.0,38.0,29.34,SE,146,1.0,2.0,95,0.00,,,0.00,Meteo,2013-01-12 05:01:00,
2013-01-11 23:04:00,39.0,38.0,29.34,South,169,1.0,2.0,95,0.00,,,0.00,Meteo,2013-01-12 05:04:00,
2013-01-11 23:09:00,40.0,39.0,29.34,SE,145,1.0,3.0,95,0.00,,,0.00,Meteo,2013-01-12 05:09:00,
2013-01-11 23:12:00,40.0,39.0,29.34,SSE,168,1.0,2.0,95,0.00,,,0.00,Meteo,2013-01-12 05:12:00,
2013-01-11 23:17:00,40.0,39.0,29.33,SE,145,1.0,2.0,95,0.00,,,0.00,Meteo,2013-01-12 05:17:00,
2013-01-11 23:22:00,40.0,39.0,29.33,South,176,1.0,1.0,95,0.00,,,0.00,Meteo,2013-01-12 05:22:00,
2013-01-11 23:27:00,40.0,39.0,29.33,SSE,167,0.0,1.0,95,0.00,,,0.00,Meteo,2013-01-12 05:27:00,
2013-01-11 23:32:00,40.0,39.0,29.33,SSE,158,0.0,1.0,95,0.00,,,0.00,Meteo,2013-01-12 05:32:00,
2013-01-11 23:37:00,40.0,39.0,29.32,SSE,163,0.0,1.0,95,0.00,,,0.00,Meteo,2013-01-12 05:37:00,
2013-01-11 23:42:00,40.0,39.0,29.33,North,0,0.0,0.0,95,0.00,,,0.00,Meteo,2013-01-12 05:42:00,
2013-01-11 23:47:00,40.0,39.0,29.32,North,0,0.0,0.0,95,0.00,,,0.00,Meteo,2013-01-12 05:47:00,
2013-01-11 23:52:00,40.0,39.0,29.32,SSE,163,0.0,1.0,95,0.00,,,0.00,Meteo,2013-01-12 05:52:00,
2013-01-11 23:57:00,40.0,39.0,29.32,North,0,0.0,0.0,95,0.00,,,0.00,Meteo,2013-01-12 05:57:00,